KINEIS-1C

Last updated on Mon Jun 22 2026 00:03:00 GMT+0000 (Coordinated Universal Time)

1 60081U 24114C 26172.54594775 .00000615 00000+0 86937-4 0 9999 2 60081 97.9848 196.5611 0002007 122.8595 237.2810 14.80633728108028
UTC large
Height (km)
Speed (km/s)
/
Latitude / Longitude
Inclination (degrees)
Orbital Period (minutes)
Azimuth
Elevation
Range (km)
Doppler Factor

Next 0 passes for location: London (51.5072 / 0.1276)

No passes found over London.
KINEIS-1C